STARLINK-1256, 45401

Orbit data source: Space-Track

STARLINK-1256, 45401 is a payload satellite owned by SpaceX/Seattle (US) in LEO that was launched on Wed, 18 Mar 2020 UTC via an FALCON 9 launch vehicle from the Air Force Eastern Test Range (AFETR). Payloads include a variety of satellites, spacecraft, and rockets equipped with specific instruments for various scientific and technological missions. These include communications satellites like Starlink; space stations such as the ISS; scientific satellites like the Hubble; Earth observation satellites from companies like Planet Labs, Umbra, and HawkEye 360; GPS; miniature CubeSats for education and research; and military/defense satellites.

Loading next visibility...
STARLINK-1256 details
Identifier
45401, 2020-019AT
Orbit
LEO
Last TLE update12 hours ago
Origin
Flag of USSpaceX/Seattle (US)
ManufacturerSpaceX/Seattle
MissionOperational Commercial Communications
Bus & MotorSTARLINK, Unknown motor
Mass260 kg wet, ~248 kg dry
Launch date (UTC)
2020-03-18 (5 years ago)
Launch vehicle
FALCON 9
Launch site
Air Force Eastern Test Range (AFETR)
Object type
Payload
Rocket body
Debris
Shape & HBRBox + 1 Pan, 8.86 m
Radar Cross Section13.562 m², Large (>1 m²)

Expand to show TLE details & history

TLE from 12 hours ago
0 STARLINK-1256
1 45401U 20019AT  24338.91553274  .00001886  00000-0  14534-3 0  9995
2 45401  53.0563  45.1111 0001314  96.5871 263.5268 15.06429138260500
Epoch: 2024-12-03T21:58Z
Definitive object data (Epoch: 2024-12-03T21:58:22.028Z)
Latitude-0°
Longitude2.30113°
Altitude548.104 km
Speed7.589 km/s
True Right ascension03h 00m 26s
True Declination0° 00' 00"
Sunlit
Object was in full shadow at TLE epoch
Visualization TLE readout
Latitude27.10124°
Longitude157.5922°
Altitude547.746 km
Speed7.592 km/s
Apparent Right ascension16h 02m 26s
Apparent Declination-7° 01' 58"
Sunlit
Object is in daylight
Visualization observer readout
Local Sidereal Time07:40:00
Azimuth71.06° E
Elevation-31.451°
Doppler factor1
Orbital elements
Apogee altitude548.303 km
Perigee altitude546.483 km
Semi-major axis6,925.53 km
Eccentricity0.0001314
Inclination53.0563°
RAAN45.1111°
Arg. of periapsis96.5871°
True anomaly263.51184°
Mean anomaly263.5268°
Eccentric anomaly263.51932°
Mean motion3.76586 °/min
BSTAR0.00014534
Orbital period95.6 mins
Loading maneuver chart data...
Loading historical data...
Loading historical data...
Loading historical data...
Loading historical data...
Loading historical data...
Loading historical data...
Loading historical data...

STARLINK-1256 Visibility forecast

Observer location: undefined°, undefined

Span
Click to sort rows by Start time (UTC) header in descending order
Start Az.
Max El. time (UTC)
Max El. Az.
Max El.
End time (UTC)
End Az.
5 mins2024-12-04 12:45:40.198Z341.882° N2024-12-04 12:47:40.198Z19.769° NNE21.534°2024-12-04 12:50:40.198Z73.456° E
7 mins2024-12-04 14:24:40.198Z305.21° NW2024-12-04 14:27:40.198Z229.158° WSW43.933°2024-12-04 14:31:40.198Z137.507° SSE
5 mins2024-12-05 05:58:40.198Z164.433° S2024-12-05 06:00:40.198Z127.67° SE19.378°2024-12-05 06:03:40.198Z79.849° E
6 mins2024-12-05 07:37:40.198Z254.967° W2024-12-05 07:39:40.198Z311.539° NW39.186°2024-12-05 07:43:40.198Z42.595° NE
4 mins2024-12-05 09:18:40.198Z318.9° NNW2024-12-05 09:19:40.198Z335.914° NNW16.063°2024-12-05 09:22:40.198Z24.045° NE
|